Regional Weather Roundup
Issued by NWS Bismarck, ND

Home | Current Version | Previous Version | Text Only | Print | Product List | Glossary On
Versions: 1 2 3 4 5 6 7 8 9 10 11 12 13 14 15 16 17 18 19 20 21 22 23 24 25 26 27 28 29 30 31 32 33 34 35 36 37 38 39 40 41 42 43 44 45 46 47 48 49 50
000
ASUS43 KBIS 221059
RWRBIS

NWR BROADCAST TEXT
NATIONAL WEATHER SERVICE BISMARCK ND
600 AM CDT TUE JUL 22 2014

NOTE: "FAIR" INDICATES FEW OR NO CLOUDS BELOW 12,000 FEET WITH NO
SIGNIFICANT WEATHER AND/OR OBSTRUCTIONS TO VISIBILITY.


CITY           SKY/WX    TMP DP  RH WIND       PRES   REMARKS
WILLISTON      CLEAR     55  53  93 CALM      30.11R
MINOT          PTCLDY    59  57  93 W7        30.09R
MINOT AFB      NOT AVBL
BISMARCK       CLOUDY    64  62  93 CALM      30.09R
DICKINSON      NOT AVBL
GARRISON         N/A     56  56 100 CALM      30.09R
HETTINGER ARPT FOG       55  54  96 CALM      30.15R VSB 1/2
JAMESTOWN      NOT AVBL
CARRINGTON     FAIR      57  57 100 NW6       30.07R
CROSBY           N/A     57  57 100 S5        30.11R
HARVEY         FOG       61  61 100 NW12      30.07R VSB 1/4
HAZEN          PTSUNNY   59  59 100 CALM      30.11R FOG
MANDAN         CLOUDY    63  63 100 N8        30.11R FOG
RUGBY          FOG       57  57 100 NW3       30.07R VSB 1/4
TIOGA          FOG       48  48 100 CALM      30.14S VSB 3/4
WATFORD CITY   FOG       54  54 100 CALM      30.10R VSB 1/4
$$

CITY           SKY/WX    TMP DP  RH WIND       PRES   REMARKS
GRAND FORKS    MOCLDY    62  60  93 NW8       29.98R
GRAND FORKS AF NOT AVBL
DEVILS LAKE    CLEAR     61  55  82 NW8       30.04R
FARGO          CLOUDY    66  62  87 NW15      29.99R
CAVALIER       FAIR      61  59  94 NW7       30.00R
GWINNER        MOSUNNY   66  66 100 NW8       30.03R
LANGDON        FAIR      57  55  94 NW7       30.05R
$$

CITY           SKY/WX    TMP DP  RH WIND       PRES   REMARKS
ABERDEEN       PTCLDY    61  61 100 NW5       30.04R
MOBRIDGE       CLOUDY    64  62  93 CALM      30.08R
BUFFALO          N/A     58  57  97 SW3       30.12R
RAPID CITY     LGT RAIN  66  63  90 W9        30.21R
GLASGOW        CLEAR     55  53  93 NW6       30.12R
SIDNEY         CLEAR     55  52  88 CALM      30.13R
WOLF POINT     CLEAR     56  53  90 CALM      30.11R FOG
GLENDIVE       PTCLDY    57  54  88 NW3       30.14R
MILES CITY     CLOUDY    65  58  78 E3        30.12R
BAKER          PTCLDY    55  54  96 SE8       30.16R
$$

CITY           SKY/WX    TMP DP  RH WIND       PRES   REMARKS
BILLINGS       MOCLDY    62  53  72 N6        30.15R
GREAT FALLS    CLOUDY    58  49  72 NW3       30.13S
$$



USA.gov is the U.S. government's official web portal to all federal, state and local government web resources and services.